Location: Campillo
(40.8621°N, 4.2488°W)
Time: 12:17:26
(UTC+00:00)

Centaur D AC-29 - Pass Details

Date: 07 October 2021
Orbit: 571 x 36266 km, 26.8° (Epoch: 20 October)

Event Time Altitude Azimuth Distance (km) Brightness Sun altitude
Rises 00:33:06 0° 95° (E) 32,936 9.8 -54.1°
Reaches altitude 10° 01:42:08 10° 95° (E) 37,853 10.3 -48.5°
Maximum altitude 06:33:47 43° 103° (ESE) 27,351 10.2 1.8°
Drops below altitude 10° 08:09:32 10° 84° (E) 12,819 8.9 19.0°
Sets 08:16:45 0° 81° (E) 11,938 8.4 20.2°
